Tracking 33877 objects as of 19-Apr-2026
HD Live streaming from Space Station
objects crossing your sky now

SPAINSAT NG II

Track SPAINSAT NG II now!


NORAD ID: 66144
Int'l Code: 2025-239A
Perigee: 3,851.4 km
Apogee: 69,809.8 km
Inclination: 14.3 °
Period: 1,489.4 minutes
Semi major axis: 43201 km
RCS: Unknown
Launch date: October 24, 2025
Source: Spain (SPN)
Launch site: AIR FORCE EASTERN TEST RANGE (AFETR)
Your satellite tracking list
Your tracking list is empty




NASA's NSSDC Master Catalog

Two Line Element Set (TLE):
1 66144U 25239A   26108.85912486 -.00000096  00000-0  00000-0 0  9998
2 66144  14.2735 229.5275 7633793 207.0452  73.9752  0.96683756  1773
Source of the keplerian elements: AFSPC